• In Hungary
  • List of Countries
  • For 7 days
  • Water Temperature
  • Satellite Maps
  • Weather Map
  • News
  • Weather Widgets
  • user-avatar
    Login

    Hourly Weather Kielmina

    Today, 23 September, Sunday

    Time Temperature Precipitation Wind Pressure Humidity
    00:00 +11°C° 0 mm 3 mps 745 mmHg 63%
    01:00 +10°C° 0 mm 3 mps 745 mmHg 64%
    02:00 +10°C° 0 mm 3 mps 745 mmHg 65%
    03:00 +10°C° 0 mm 3 mps 744 mmHg 65%
    04:00 +10°C° 0 mm 3 mps 744 mmHg 66%
    05:00 +10°C° 0.1 mm 4 mps 744 mmHg 68%
    06:00 +11°C° 0.1 mm 4 mps 744 mmHg 70%
    07:00 +10°C° 0 mm 5 mps 744 mmHg 70%
    08:00 +12°C° 0.1 mm 5 mps 744 mmHg 70%
    09:00 +12°C° 0.1 mm 5 mps 744 mmHg 69%
    10:00 +13°C° 0.1 mm 5 mps 744 mmHg 68%
    11:00 +14°C° 0.1 mm 5 mps 743 mmHg 65%
    12:00 +14°C° 0.1 mm 4 mps 743 mmHg 62%
    13:00 +15°C° 0.1 mm 4 mps 742 mmHg 58%
    14:00 +14°C° 0.3 mm 3 mps 742 mmHg 63%
    15:00 +15°C° 0.3 mm 2 mps 741 mmHg 68%
    16:00 +14°C° 0.3 mm 1 mps 740 mmHg 74%
    17:00 +13°C° 1.5 mm 2 mps 739 mmHg 79%
    18:00 +12°C° 1.5 mm 3 mps 738 mmHg 84%
    19:00 +11°C° 1.5 mm 3 mps 737 mmHg 89%
    20:00 +10°C° 6.7 mm 5 mps 735 mmHg 90%
    21:00 +9°C° 6.7 mm 6 mps 734 mmHg 91%
    22:00 +9°C° 6.7 mm 7 mps 733 mmHg 92%
    23:00 +9°C° 0.8 mm 7 mps 733 mmHg 92%

    Tomorrow, 24 September, Monday

    Time Temperature Precipitation Wind Pressure Humidity
    00:00 +9°C° 0.8 mm 7 mps 733 mmHg 92%
    01:00 +9°C° 0.8 mm 7 mps 733 mmHg 92%
    02:00 +9°C° 1.2 mm 7 mps 735 mmHg 89%
    03:00 +7°C° 1.2 mm 8 mps 736 mmHg 87%
    04:00 +6°C° 1.2 mm 8 mps 738 mmHg 84%
    05:00 +7°C° 0.1 mm 8 mps 739 mmHg 84%
    06:00 +7°C° 0.1 mm 8 mps 740 mmHg 83%
    07:00 +7°C° 0.1 mm 8 mps 741 mmHg 82%
    08:00 +7°C° 0.2 mm 9 mps 742 mmHg 79%
    09:00 +8°C° 0.2 mm 9 mps 742 mmHg 75%
    10:00 +8°C° 0.2 mm 10 mps 743 mmHg 72%
    11:00 +8°C° 0.1 mm 10 mps 744 mmHg 68%
    12:00 +9°C° 0.1 mm 10 mps 744 mmHg 65%
    13:00 +9°C° 0.1 mm 10 mps 744 mmHg 61%
    14:00 +9°C° 0.1 mm 10 mps 745 mmHg 59%
    15:00 +9°C° 0.1 mm 10 mps 745 mmHg 58%
    16:00 +10°C° 0.1 mm 9 mps 745 mmHg 56%
    17:00 +8°C° 0.1 mm 9 mps 746 mmHg 61%
    18:00 +7°C° 0.1 mm 8 mps 746 mmHg 66%
    19:00 +8°C° 0.1 mm 7 mps 747 mmHg 71%
    20:00 +6°C° 0.2 mm 7 mps 747 mmHg 74%
    21:00 +7°C° 0.2 mm 6 mps 748 mmHg 77%
    22:00 +5°C° 0.2 mm 6 mps 749 mmHg 80%
    23:00 +5°C° 0 mm 6 mps 750 mmHg 80%

    Day after tomorrow, 25 September, Tuesday

    Time Temperature Precipitation Wind Pressure Humidity
    00:00 +6°C° 0 mm 5 mps 751 mmHg 79%
    01:00 +6°C° 0 mm 5 mps 751 mmHg 79%
    02:00 +5°C° 0 mm 5 mps 752 mmHg 80%
    03:00 +5°C° 0 mm 5 mps 752 mmHg 82%
    04:00 +5°C° 0 mm 5 mps 752 mmHg 83%
    05:00 +5°C° 0 mm 5 mps 753 mmHg 81%
    06:00 +5°C° 0 mm 5 mps 753 mmHg 78%
    07:00 +5°C° 0 mm 5 mps 754 mmHg 76%
    08:00 +7°C° 0 mm 6 mps 755 mmHg 67%
    09:00 +8°C° 0 mm 6 mps 755 mmHg 57%
    10:00 +10°C° 0 mm 6 mps 756 mmHg 48%
    11:00 +10°C° 0.1 mm 7 mps 756 mmHg 47%
    12:00 +10°C° 0.1 mm 7 mps 756 mmHg 46%
    13:00 +11°C° 0.1 mm 7 mps 756 mmHg 45%
    14:00 +11°C° 0 mm 6 mps 756 mmHg 45%
    15:00 +11°C° 0 mm 6 mps 756 mmHg 44%
    16:00 +10°C° 0 mm 5 mps 756 mmHg 44%
    17:00 +10°C° 0 mm 4 mps 757 mmHg 47%
    18:00 +9°C° 0 mm 3 mps 757 mmHg 50%
    19:00 +7°C° 0 mm 2 mps 758 mmHg 53%
    20:00 +7°C° 0 mm 2 mps 758 mmHg 55%
    21:00 +6°C° 0 mm 2 mps 758 mmHg 56%
    22:00 +7°C° 0 mm 1 mps 759 mmHg 58%
    23:00 +6°C° 0 mm 2 mps 759 mmHg 59%

    26 September, Wednesday

    Time Temperature Precipitation Wind Pressure Humidity
    00:00 +5°C° 0 mm 2 mps 759 mmHg 60%
    01:00 +5°C° 0 mm 2 mps 759 mmHg 62%
    02:00 +5°C° 0 mm 2 mps 759 mmHg 65%
    03:00 +5°C° 0 mm 2 mps 759 mmHg 68%
    04:00 +5°C° 0 mm 2 mps 758 mmHg 71%
    05:00 +4°C° 0 mm 3 mps 758 mmHg 72%
    06:00 +5°C° 0 mm 3 mps 758 mmHg 73%
    07:00 +5°C° 0 mm 4 mps 758 mmHg 74%
    08:00 +7°C° 0 mm 4 mps 758 mmHg 67%
    09:00 +9°C° 0 mm 5 mps 758 mmHg 59%
    10:00 +10°C° 0 mm 6 mps 758 mmHg 52%
    11:00 +11°C° 0 mm 6 mps 757 mmHg 49%
    12:00 +13°C° 0 mm 6 mps 756 mmHg 47%
    13:00 +14°C° 0 mm 6 mps 756 mmHg 44%
    14:00 +13°C° 0 mm 6 mps 755 mmHg 45%
    15:00 +13°C° 0 mm 5 mps 754 mmHg 47%
    16:00 +13°C° 0 mm 5 mps 754 mmHg 48%
    17:00 +13°C° 0 mm 5 mps 753 mmHg 48%
    18:00 +12°C° 0 mm 5 mps 753 mmHg 49%
    19:00 +12°C° 0 mm 5 mps 753 mmHg 49%
    20:00 +12°C° 0 mm 5 mps 752 mmHg 50%
    21:00 +11°C° 0 mm 6 mps 752 mmHg 50%
    22:00 +11°C° 0 mm 6 mps 752 mmHg 51%
    23:00 +10°C° 0.3 mm 6 mps 752 mmHg 56%

    27 September, Thursday

    Time Temperature Precipitation Wind Pressure Humidity
    00:00 +10°C° 0.3 mm 6 mps 751 mmHg 61%
    01:00 +9°C° 0.3 mm 7 mps 751 mmHg 66%
    02:00 +10°C° 0.1 mm 7 mps 751 mmHg 64%
    03:00 +10°C° 0.1 mm 7 mps 750 mmHg 63%
    04:00 +10°C° 0.1 mm 7 mps 750 mmHg 62%
    05:00 +10°C° 0 mm 7 mps 750 mmHg 63%
    06:00 +10°C° 0 mm 7 mps 750 mmHg 65%
    07:00 +10°C° 0 mm 7 mps 750 mmHg 67%
    08:00 +11°C° 0.1 mm 7 mps 750 mmHg 68%
    09:00 +11°C° 0.1 mm 7 mps 750 mmHg 69%
    10:00 +12°C° 0.1 mm 7 mps 750 mmHg 71%
    11:00 +15°C° 0 mm 7 mps 750 mmHg 68%
    12:00 +16°C° 0 mm 7 mps 750 mmHg 65%
    13:00 +18°C° 0 mm 7 mps 750 mmHg 63%
    14:00 +19°C° 0 mm 6 mps 750 mmHg 64%
    15:00 +19°C° 0 mm 6 mps 749 mmHg 65%
    16:00 +19°C° 0 mm 5 mps 749 mmHg 67%
    17:00 +18°C° 0 mm 4 mps 749 mmHg 71%
    18:00 +17°C° 0 mm 4 mps 749 mmHg 75%
    19:00 +16°C° 0 mm 3 mps 749 mmHg 79%
    20:00 +16°C° 0 mm 3 mps 749 mmHg 81%
    21:00 +14°C° 0 mm 3 mps 749 mmHg 82%
    22:00 +14°C° 0 mm 4 mps 749 mmHg 84%
    23:00 +14°C° 0 mm 4 mps 748 mmHg 83%

    28 September, Friday

    Time Temperature Precipitation Wind Pressure Humidity
    00:00 +14°C° 0 mm 4 mps 748 mmHg 82%
    01:00 +13°C° 0 mm 4 mps 747 mmHg 81%
    02:00 +13°C° 0 mm 4 mps 747 mmHg 79%
    03:00 +13°C° 0 mm 4 mps 747 mmHg 76%
    04:00 +13°C° 0 mm 4 mps 746 mmHg 74%
    05:00 +13°C° 0 mm 5 mps 746 mmHg 73%
    06:00 +13°C° 0 mm 5 mps 746 mmHg 72%
    07:00 +13°C° 0 mm 5 mps 746 mmHg 71%
    08:00 +15°C° 0 mm 5 mps 746 mmHg 68%
    09:00 +17°C° 0 mm 4 mps 746 mmHg 65%
    10:00 +18°C° 0 mm 4 mps 746 mmHg 62%
    11:00 +19°C° 0 mm 4 mps 746 mmHg 61%
    12:00 +19°C° 0 mm 4 mps 746 mmHg 61%
    13:00 +20°C° 0 mm 4 mps 746 mmHg 60%
    14:00 +19°C° 0 mm 4 mps 746 mmHg 64%
    15:00 +18°C° 0 mm 4 mps 746 mmHg 67%
    16:00 +17°C° 0 mm 3 mps 746 mmHg 70%
    17:00 +17°C° 0 mm 3 mps 747 mmHg 71%
    18:00 +16°C° 0 mm 2 mps 747 mmHg 73%
    19:00 +15°C° 0 mm 2 mps 747 mmHg 74%
    20:00 +15°C° 0 mm 2 mps 748 mmHg 72%
    21:00 +14°C° 0 mm 2 mps 748 mmHg 71%
    22:00 +13°C° 0 mm 3 mps 748 mmHg 69%
    23:00 +12°C° 0 mm 3 mps 749 mmHg 69%
    Show more